TimeEDT,TemperatureF,Dew PointF,Humidity,Sea Level PressureIn,VisibilityMPH,Wind Direction,Wind SpeedMPH,Gust SpeedMPH,PrecipitationIn,Events,Conditions,WindDirDegrees,DateUTC
12:53 AM,30.9,19.9,64,29.94,10.0,Calm,Calm,-,N/A,,Clear,0,2013-04-05 04:53:00
1:53 AM,34.0,21.9,61,29.92,10.0,South,4.6,-,N/A,,Clear,190,2013-04-05 05:53:00
2:53 AM,37.0,21.9,54,29.90,10.0,South,4.6,-,N/A,,Clear,180,2013-04-05 06:53:00
3:53 AM,37.0,23.0,57,29.90,10.0,South,4.6,-,N/A,,Clear,170,2013-04-05 07:53:00
4:53 AM,36.0,23.0,59,29.88,10.0,Calm,Calm,-,N/A,,Clear,0,2013-04-05 08:53:00
5:53 AM,35.1,24.1,64,29.87,10.0,SSW,5.8,-,N/A,,Clear,210,2013-04-05 09:53:00
6:53 AM,34.0,25.0,70,29.86,10.0,South,11.5,-,N/A,,Clear,180,2013-04-05 10:53:00
7:53 AM,37.9,27.0,65,29.88,10.0,SSW,11.5,-,N/A,,Clear,200,2013-04-05 11:53:00
8:53 AM,39.9,26.1,58,29.86,10.0,South,8.1,-,N/A,,Clear,190,2013-04-05 12:53:00
9:53 AM,45.0,21.0,39,29.82,10.0,SW,9.2,-,N/A,,Clear,220,2013-04-05 13:53:00
10:53 AM,46.9,18.0,32,29.81,10.0,South,6.9,-,N/A,,Clear,180,2013-04-05 14:53:00
11:53 AM,50.0,18.0,28,29.78,10.0,SSE,4.6,-,N/A,,Overcast,160,2013-04-05 15:53:00
12:53 PM,51.1,21.9,32,29.76,10.0,WNW,13.8,23.0,N/A,,Overcast,300,2013-04-05 16:53:00
1:53 PM,53.1,21.0,29,29.74,10.0,NW,15.0,19.6,N/A,,Mostly Cloudy,320,2013-04-05 17:53:00
2:53 PM,54.0,19.0,25,29.72,10.0,NNW,10.4,-,N/A,,Scattered Clouds,340,2013-04-05 18:53:00
3:53 PM,53.1,23.0,31,29.72,10.0,NNW,11.5,24.2,N/A,,Partly Cloudy,330,2013-04-05 19:53:00
4:53 PM,50.0,23.0,35,29.74,10.0,NW,13.8,21.9,N/A,,Clear,320,2013-04-05 20:53:00
5:53 PM,46.9,21.0,36,29.78,10.0,NW,13.8,21.9,N/A,,Partly Cloudy,320,2013-04-05 21:53:00
6:53 PM,42.1,25.0,51,29.83,10.0,North,13.8,20.7,N/A,,Overcast,360,2013-04-05 22:53:00
7:53 PM,39.9,25.0,55,29.86,10.0,NNW,10.4,17.3,N/A,,Overcast,340,2013-04-05 23:53:00
8:53 PM,37.9,21.9,53,29.88,10.0,NNW,15.0,20.7,N/A,,Overcast,340,2013-04-06 00:53:00
9:53 PM,37.0,19.0,48,29.90,10.0,NNW,11.5,21.9,N/A,,Partly Cloudy,340,2013-04-06 01:53:00
10:53 PM,35.1,19.0,52,29.91,10.0,NNW,11.5,17.3,N/A,,Scattered Clouds,340,2013-04-06 02:53:00
11:53 PM,33.1,16.0,50,29.92,10.0,NNW,9.2,-,N/A,,Mostly Cloudy,340,2013-04-06 03:53:00